Date String (YYYY-MM-DD hh:mm:ss) UTC,Instrument flags,absolute air pressure of the measurement (hPa),sample flow rate (lpm),inlet stack bypass flow (lpm),air temperature of the measurement (°C),ambient temperature measured by the external sensor (°C),aerosol sample conditioner tube jacket temperature (°C),OPC LED temperature (°C),internal box temperature (°C),relative humidity of the measurement (%),span deviation,mass concentration of particles derived from Lorenz-Mie calculation of OPC scattering (μg/m³),mass concentration of particles derived from Lorenz-Mie calculation of OPC scattering (μg/m³),mass concentration of particles derived from Lorenz-Mie calculation of OPC scattering (μg/m³)
DateTimeUTC,F1_M11,P_M11,Q1_M11,Q2_M11,T1_M11,T2_M11,T3_M11,T4_M11,T5_M11,U1_M11,ZSPAN_M11,X2_M11,X0_M11,X1_M11
2023-09-05 05:00:00,SystemResetWarning,0826.1,4.99,000.00,028.1,026.8,000.0,036.5,029.7,19.1,0000.0,0001.52,0003.51,0001.13
2023-09-05 05:01:00,SystemResetWarning,0826.0,5.00,000.00,028.2,026.9,000.0,036.5,029.8,19.2,0000.0,0001.52,0003.37,0001.13
2023-09-05 05:02:00,SystemResetWarning,0826.0,5.00,000.00,028.2,027.0,000.0,036.5,029.8,19.3,0000.0,0001.56,0002.98,0001.14
2023-09-05 05:03:00,SystemResetWarning,0826.0,5.01,000.00,028.2,027.1,000.0,036.5,029.9,19.2,0000.0,0001.58,0003.04,0001.13
2023-09-05 05:04:00,SystemResetWarning,0825.9,5.01,000.00,028.3,027.1,000.0,036.5,029.9,19.3,0000.0,0001.61,0002.70,0001.14
2023-09-05 05:05:00,SystemResetWarning,0825.9,5.00,000.00,028.3,027.2,000.0,036.6,029.9,19.2,0000.0,0001.61,0002.62,0001.16
2023-09-05 05:06:00,SystemResetWarning,0825.9,4.99,000.00,028.3,027.2,000.0,036.6,029.9,19.1,0000.0,0001.63,0002.94,0001.15
2023-09-05 05:07:00,SystemResetWarning,0825.9,5.00,000.00,028.3,027.2,000.0,036.6,030.0,18.3,0000.0,0001.68,0003.69,0001.15
2023-09-05 05:08:00,SystemResetWarning,0825.9,4.99,000.00,028.4,027.2,000.0,036.6,030.0,18.4,0000.0,0001.67,0003.72,0001.15
2023-09-05 05:09:00,SystemResetWarning,0825.8,4.99,000.00,028.3,026.0,000.0,036.6,029.7,18.8,0000.0,0001.68,0003.86,0001.15
2023-09-05 05:10:00,SystemResetWarning,0825.8,5.01,000.00,028.2,024.7,000.0,036.5,029.3,19.1,0000.0,0001.70,0003.95,0001.15
2023-09-05 05:11:00,SystemResetWarning,0825.8,5.01,000.00,028.1,024.6,000.0,036.4,029.2,19.2,0000.0,0001.71,0003.94,0001.15
2023-09-05 05:12:00,SystemResetWarning,0825.8,5.01,000.00,028.0,024.8,000.0,036.4,029.2,18.9,0000.0,0001.72,0004.12,0001.15
2023-09-05 05:13:00,SystemResetWarning,0825.8,5.00,000.00,028.0,025.1,000.0,036.4,029.2,18.9,0000.0,0001.67,0004.03,0001.14
2023-09-05 05:14:00,SystemResetWarning,0825.8,4.99,000.00,027.9,025.4,000.0,036.4,029.3,18.9,0000.0,0001.67,0004.03,0001.14
2023-09-05 05:15:00,SystemResetWarning,0825.7,4.99,000.00,027.9,025.7,000.0,036.4,029.4,19.0,0000.0,0001.63,0003.84,0001.14
2023-09-05 05:16:00,SystemResetWarning,0825.7,5.00,000.00,028.0,025.9,000.0,036.4,029.4,18.8,0000.0,0001.63,0003.86,0001.13
2023-09-05 05:17:00,SystemResetWarning,0825.7,5.00,000.00,028.0,026.1,000.0,036.4,029.5,19.0,0000.0,0001.71,0003.93,0001.13
2023-09-05 05:18:00,SystemResetWarning,0825.6,5.01,000.00,028.0,026.3,000.0,036.4,029.5,18.8,0000.0,0001.69,0004.41,0001.13
2023-09-05 05:19:00,SystemResetWarning,0825.6,4.99,000.00,028.0,026.4,000.0,036.4,029.6,19.1,0000.0,0001.67,0004.80,0001.13
2023-09-05 05:20:00,SystemResetWarning,0825.6,4.99,000.00,028.0,026.5,000.0,036.4,029.6,19.1,0000.0,0001.66,0005.04,0001.12
2023-09-05 05:21:00,SystemResetWarning,0825.6,5.00,000.00,028.1,026.6,000.0,036.4,029.6,18.9,0000.0,0001.63,0005.00,0001.11
2023-09-05 05:22:00,SystemResetWarning,0825.5,5.00,000.00,028.1,026.7,000.0,036.4,029.7,18.7,0000.0,0001.61,0005.03,0001.10
2023-09-05 05:23:00,SystemResetWarning,0825.5,5.00,000.00,028.1,026.7,000.0,036.4,029.7,18.8,0000.0,0001.66,0005.02,0001.12
2023-09-05 05:24:00,SystemResetWarning,0825.5,5.00,000.00,028.1,026.8,000.0,036.5,029.7,18.8,0000.0,0001.68,0005.16,0001.12
2023-09-05 05:25:00,SystemResetWarning,0825.4,5.00,000.00,028.2,026.9,000.0,036.5,029.8,18.8,0000.0,0001.69,0005.15,0001.11
2023-09-05 05:26:00,SystemResetWarning,0825.4,5.01,000.00,028.2,026.9,000.0,036.5,029.8,18.5,0000.0,0001.76,0005.40,0001.10
2023-09-05 05:27:00,SystemResetWarning,0825.5,5.00,000.00,028.2,026.9,000.0,036.5,029.8,18.5,0000.0,0001.75,0005.51,0001.09
2023-09-05 05:28:00,SystemResetWarning,0825.6,5.01,000.00,028.2,026.9,000.0,036.5,029.8,18.4,0000.0,0001.67,0005.36,0001.09
2023-09-05 05:29:00,SystemResetWarning,0825.7,5.00,000.00,028.2,027.0,000.0,036.5,029.8,18.5,0000.0,0001.59,0004.13,0001.08
2023-09-05 05:30:00,SystemResetWarning,0825.7,5.00,000.00,028.2,027.0,000.0,036.5,029.8,18.5,0000.0,0001.61,0003.59,0001.08
2023-09-05 05:31:00,SystemResetWarning,0825.7,4.99,000.00,028.3,027.0,000.0,036.6,029.8,18.4,0000.0,0001.61,0003.08,0001.08
2023-09-05 05:32:00,SystemResetWarning,0825.8,5.00,000.00,028.3,027.1,000.0,036.6,029.9,18.0,0000.0,0001.61,0003.12,0001.08
2023-09-05 05:33:00,SystemResetWarning,0825.9,5.01,000.00,028.3,027.1,000.0,036.6,029.9,18.5,0000.0,0001.64,0003.15,0001.09
2023-09-05 05:34:00,SystemResetWarning,0825.9,5.01,000.00,028.3,027.1,000.0,036.6,030.0,19.1,0000.0,0001.61,0003.09,0001.07
2023-09-05 05:35:00,SystemResetWarning,0825.9,5.00,000.00,028.4,027.1,000.0,036.6,030.0,18.4,0000.0,0001.61,0002.93,0001.07
2023-09-05 05:36:00,SystemResetWarning,0826.0,5.00,000.00,028.4,026.9,000.0,036.6,029.9,18.0,0000.0,0001.62,0002.98,0001.07
2023-09-05 05:37:00,SystemResetWarning,0826.1,4.98,000.00,028.3,025.5,000.0,036.6,029.4,18.5,0000.0,0001.58,0003.18,0001.07
2023-09-05 05:38:00,SystemResetWarning,0826.0,5.01,000.00,028.1,024.5,000.0,036.5,029.2,19.7,0000.0,0001.58,0003.19,0001.06
2023-09-05 05:39:00,SystemResetWarning,0826.0,5.02,000.00,028.0,024.5,000.0,036.5,029.1,19.2,0000.0,0001.64,0003.36,0001.06
2023-09-05 05:40:00,SystemResetWarning,0826.2,4.98,000.00,027.9,024.8,000.0,036.4,029.1,19.1,0000.0,0001.66,0003.41,0001.06
2023-09-05 05:41:00,SystemResetWarning,0826.2,4.99,000.00,027.9,025.1,000.0,036.4,029.2,19.8,0000.0,0001.63,0003.34,0001.05
2023-09-05 05:42:00,SystemResetWarning,0826.1,5.01,000.00,027.9,025.4,000.0,036.4,029.3,20.2,0000.0,0001.61,0003.31,0001.06
2023-09-05 05:43:00,SystemResetWarning,0826.2,5.00,000.00,027.9,025.7,000.0,036.4,029.4,19.7,0000.0,0001.58,0004.28,0001.05
2023-09-05 05:44:00,SystemResetWarning,0826.3,4.99,000.00,027.9,026.0,000.0,036.4,029.4,19.8,0000.0,0001.58,0004.31,0001.04
2023-09-05 05:45:00,SystemResetWarning,0826.3,5.00,000.00,027.9,026.2,000.0,036.4,029.5,19.8,0000.0,0001.61,0004.44,0001.04
2023-09-05 05:46:00,SystemResetWarning,0826.3,5.00,000.00,028.0,026.3,000.0,036.4,029.5,19.2,0000.0,0001.62,0004.58,0001.03
2023-09-05 05:47:00,SystemResetWarning,0826.3,5.00,000.00,028.0,026.5,000.0,036.4,029.5,19.3,0000.0,0001.64,0004.96,0001.02
2023-09-05 05:48:00,SystemResetWarning,0826.2,4.99,000.00,028.0,026.6,000.0,036.4,029.6,18.6,0000.0,0001.61,0004.70,0001.01
2023-09-05 05:49:00,SystemResetWarning,0826.2,5.00,000.00,028.0,026.6,000.0,036.4,029.6,18.3,0000.0,0001.58,0005.04,0001.01
2023-09-05 05:50:00,SystemResetWarning,0826.2,5.00,000.00,028.1,026.7,000.0,036.4,029.7,18.7,0000.0,0001.57,0005.01,0001.01
2023-09-05 05:51:00,SystemResetWarning,0826.2,5.00,000.00,028.1,026.8,000.0,036.4,029.7,19.0,0000.0,0001.57,0005.05,0001.00
2023-09-05 05:52:00,SystemResetWarning,0826.2,5.00,000.00,028.1,026.9,000.0,036.5,029.7,19.1,0000.0,0001.59,0005.12,0001.00
2023-09-05 05:53:00,SystemResetWarning,0826.3,5.00,000.00,028.1,026.9,000.0,036.5,029.8,19.6,0000.0,0001.60,0005.17,0001.00
2023-09-05 05:54:00,SystemResetWarning,0826.4,5.00,000.00,028.2,027.0,000.0,036.5,029.8,19.2,0000.0,0001.62,0004.51,0001.00
2023-09-05 05:55:00,SystemResetWarning,0826.4,5.00,000.00,028.2,027.0,000.0,036.5,029.8,19.9,0000.0,0001.61,0004.23,0000.99
2023-09-05 05:56:00,SystemResetWarning,0826.3,4.99,000.00,028.2,027.0,000.0,036.5,029.8,19.5,0000.0,0001.61,0005.75,0001.00
2023-09-05 05:57:00,SystemResetWarning,0826.3,4.99,000.00,028.2,027.0,000.0,036.5,029.8,18.9,0000.0,0001.61,0005.72,0001.00
2023-09-05 05:58:00,SystemResetWarning,0826.3,5.00,000.00,028.3,027.0,000.0,036.6,029.9,19.1,0000.0,0001.53,0005.18,0001.00
2023-09-05 05:59:00,SystemResetWarning,0826.3,5.00,000.00,028.3,027.1,000.0,036.6,029.9,19.3,0000.0,0001.53,0005.12,0001.00
